Regional Weather Roundup
Issued by NWS

Home | Current Version | Previous Version | Text Only | Print | Product List | Glossary On
Versions: 1 2 3 4 5 6 7 8 9 10 11 12 13 14 15 16 17 18 19 20 21 22 23 24 25 26 27 28 29 30 31 32 33 34 35 36 37 38 39 40 41 42 43 44 45 46 47 48 49 50
000
ASUS42 KFFC 290810
RWRGA
WEATHER ROUNDUP FOR GEORGIA
NATIONAL WEATHER SERVICE PEACHTREE CITY GA
400 AM EDT WED MAR 29 2017

NOTE: "FAIR" INDICATES FEW OR NO CLOUDS BELOW 12,000 FEET WITH NO
SIGNIFICANT WEATHER AND/OR OBSTRUCTIONS TO VISIBILITY.

* = USE WITH CAUTION. THE STATIONS MARKED WITH AN ASTERISK MAY NOT
REPORT WEATHER SUCH AS PRECIPITATION, FOG, OR THUNDER AND ARE NOT
QUALITY CONTROLLED BY NWS.

THE REMARK "TC" DENOTES TEMPERATURE READING IN DEGREES CELSIUS.

GAZ001>058-290900-
NORTH GEORGIA

CITY           SKY/WX    TMP DP  RH WIND       PRES   REMARKS
ATLANTA        PTCLDY    61  56  83 NW5       30.00S
ATHENS         CLEAR     57  55  93 W3        29.99F
CHAMBLEE       CLEAR     55  53  93 CALM      30.00S
PEACHTREE CITY CLEAR     56  56 100 CALM      30.01S FOG
ROME           CLEAR     55  51  86 CALM      30.00F
WEST ATLANTA   CLEAR     58  54  86 CALM      30.00S
GAINESVILLE    CLEAR     56  52  86 NW3       30.02F
CARTERSVILLE   CLEAR     53  51  93 CALM      30.01F


CITY           SKY/WX    TMP DP  RH WIND       PRES   REMARKS
DALTON*        CLEAR     52  52 100 CALM      30.01F
MARIETTA       CLEAR     58  52  82 CALM      30.00S
CANTON*        CLEAR     52  50  93 CALM      30.02F FOG
$$

GAZ059>098-102>109-290900-
CENTRAL GEORGIA

CITY           SKY/WX    TMP DP  RH WIND       PRES   REMARKS
AUGUSTA-BUSH   CLEAR     58  55  90 CALM      29.96F
AUGUSTA-DANIEL CLEAR     66  54  65 N8        29.97F
COLUMBUS       PTCLDY    66  63  90 CALM      29.98F
MACON          CLEAR     60  58  92 CALM      29.98F
ROBINS AFB     CLEAR     62  60  96 CALM      29.97F


CITY           SKY/WX    TMP DP  RH WIND       PRES   REMARKS
LAGRANGE*      PTCLDY    61  61 100 CALM      30.01R
SYLVANIA*      CLEAR    N/A N/A N/A CALM      29.96F
MILLEDGEVILLE* CLEAR     59  59 100 CALM      29.97F
$$

GAZ099>101-110>166-290900-
SOUTH GEORGIA

CITY           SKY/WX    TMP DP  RH WIND       PRES   REMARKS
SAVANNAH       CLEAR     64  58  80 SW6       29.96F
VALDOSTA       CLEAR     60  59  96 CALM      29.99F FOG
ALMA           CLEAR     66  63  90 SW3       29.97F
ST SIMONS      CLEAR     67  60  78 W7        29.96F
FT STEWART     CLEAR     61  58  89 CALM      29.94F
ALBANY         CLEAR     64  62  93 SW5       30.00F
HUNTER AFB     CLEAR     65  63  91 CALM      29.93F
MOODY AFB      CLEAR     66  62  88 W5        29.98F
BRUNSWICK      CLEAR     64  63  94 W5        29.98F


CITY           SKY/WX    TMP DP  RH WIND       PRES   REMARKS
BAINBRIDGE*    MOCLDY    70  64  83 CALM      30.00S
MOULTRIE*      CLEAR     64  63  94 W3        30.00F
VIDALIA*       PTCLDY    64  61  88 CALM      29.97F
WAYCROSS*      CLEAR     64  64 100 CALM      29.98F
DOUGLAS*       CLEAR     63  63 100 W3        30.00F
$$




USA.gov is the U.S. government's official web portal to all federal, state and local government web resources and services.